Roanoke, VA

11:26 PM EDT on October 20, 2019 (GMT -0400)
Roanoke Regional-Woodrum

Weather History for KROA - August, 2019

Change the Weather History Date:

Tuesday, August 20, 2019

  Actual Average Record
Temperature  
Mean Temperature 81 °F 75 °F  
Max Temperature 91 °F 86 °F 104 °F (1983)
Min Temperature 70 °F 65 °F 49 °F (1943)
Degree Days  
Heating Degree Days 0 0  
Month to date heating degree days 0 0  
Since 1 June heating degree days 0 11  
Since 1 July heating degree days 0 0  
Cooling Degree Days 16 10  
Month to date cooling degree days 282 219  
Year to date cooling degree days 1265 942  
Since 1 June cooling degree days 986 826  
Growing Degree Days 30 (Base 50)    
Moisture  
Dew Point 68 °F    
Average Humidity 67    
Maximum Humidity 90    
Minimum Humidity 44    
Precipitation  
Precipitation T in 0.12 in 1.90 in (1931)
Month to date precipitation 1.15 2.25  
Year to date precipitation 28.72 26.82  
Snow  
Snow 0.00 in - - ()
Month to date snowfall 0.0  
Since 1 June snowfall T  
Since 1 July snowfall T  
Snow Depth 0.00 in    
Sea Level Pressure  
Sea Level Pressure 30.09 in    
Wind  
Wind Speed 3 mph (North)    
Max Wind Speed 15 mph    
Max Gust Speed 21 mph    
Visibility 10 miles    
Events Rain , Thunderstorm    
T = Trace of Precipitation, MM = Missing Value Source: NWS Daily Summary

Daily Weather History Graph

Daily Weather History Graph

Search for Another Location

Airport or City:

Astronomy

Aug. 20, 2019 Rise Set
Actual Time 6:40 AM EDT 8:05 PM EDT
Civil Twilight 6:12 AM EDT 8:33 PM EDT
Nautical Twilight 5:39 AM EDT 9:05 PM EDT
Astronomical Twilight 5:05 AM EDT 9:40 PM EDT
Moon 10:59 PM EDT (8/20) 11:11 AM EDT (8/20)
Length of Visible Light 14h 20m
Length of Day
13h 25m
Waning Gibbous, 78% of the Moon is Illuminated
Aug 20
Waning Gibbous
Aug 23
Last Quarter
Aug 30
New
Sep 5
First Quarter
Sep 14
Full

Hourly Weather History & Observations

Time (EDT) Temp. Heat Index Dew Point Humidity Pressure Visibility Wind Dir Wind Speed Gust Speed Precip Events Conditions
12:54 AM 75.0 °F - 69.1 °F 82% 30.08 in 10.0 mi ENE 3.5 mph - N/A   Clear
1:54 AM 77.0 °F - 68.0 °F 74% 30.08 in 10.0 mi North 5.8 mph - N/A   Clear
2:54 AM 75.0 °F - 68.0 °F 79% 30.07 in 10.0 mi NNE 4.6 mph - N/A   Clear
3:54 AM 73.9 °F - 68.0 °F 82% 30.08 in 10.0 mi North 4.6 mph - N/A   Clear
4:54 AM 73.0 °F - 68.0 °F 84% 30.09 in 10.0 mi Calm Calm - N/A   Clear
5:54 AM 70.0 °F - 66.9 °F 90% 30.10 in 10.0 mi North 4.6 mph - N/A   Clear
6:54 AM 71.1 °F - 66.9 °F 87% 30.11 in 10.0 mi Calm Calm - N/A   Clear
7:54 AM 73.9 °F - 69.1 °F 85% 30.13 in 10.0 mi Calm Calm - N/A   Clear
8:54 AM 78.1 °F - 69.1 °F 74% 30.13 in 10.0 mi North 4.6 mph - N/A   Clear
9:54 AM 82.0 °F 85.5 °F 69.1 °F 65% 30.13 in 10.0 mi NNW 3.5 mph - N/A   Clear
10:54 AM 87.1 °F 92.0 °F 70.0 °F 57% 30.12 in 10.0 mi Variable 3.5 mph - N/A   Partly Cloudy
11:54 AM 89.1 °F 93.7 °F 69.1 °F 52% 30.12 in 10.0 mi Variable 5.8 mph - N/A   Partly Cloudy
12:54 PM 91.0 °F 94.3 °F 66.9 °F 45% 30.11 in 10.0 mi East 5.8 mph - N/A   Partly Cloudy
1:54 PM 81.0 °F 82.2 °F 63.0 °F 54% 30.09 in 10.0 mi West 8.1 mph - N/A   Scattered Clouds
2:25 PM 81.0 °F 82.2 °F 63.0 °F 54% 30.13 in 10.0 mi WSW 12.7 mph - N/A Thunderstorm Thunderstorm
3:54 PM 77.0 °F - 66.0 °F 69% 30.08 in 10.0 mi West 5.8 mph - 0.00 in Rain , Thunderstorm Light Thunderstorms and Rain
4:30 PM 78.1 °F - 69.1 °F 74% 30.10 in 10.0 mi Calm Calm - 0.00 in Rain Light Rain
4:54 PM 78.1 °F - 71.1 °F 79% 30.07 in 10.0 mi SE 4.6 mph - 0.00 in   Mostly Cloudy
5:54 PM 82.0 °F 85.9 °F 70.0 °F 67% 30.06 in 10.0 mi SSW 4.6 mph - N/A   Scattered Clouds
6:54 PM 82.9 °F 85.8 °F 68.0 °F 60% 30.06 in 10.0 mi Variable 3.5 mph - N/A   Partly Cloudy
7:54 PM 82.0 °F 84.9 °F 68.0 °F 62% 30.06 in 10.0 mi Calm Calm - N/A   Partly Cloudy
8:54 PM 77.0 °F - 69.1 °F 76% 30.07 in 10.0 mi SE 5.8 mph - N/A   Partly Cloudy
9:54 PM 75.9 °F - 70.0 °F 82% 30.06 in 10.0 mi SSE 3.5 mph - N/A   Clear
10:54 PM 75.0 °F - 70.0 °F 84% 30.07 in 10.0 mi Calm Calm - N/A   Clear
11:54 PM 73.9 °F - 69.1 °F 85% 30.08 in 10.0 mi Calm Calm - N/A   Clear